Tracking 30510 objects as of 22-May-2025
HD Live streaming from Space Station
objects crossing your sky now

SL-3 R/B

Track SL-3 R/B now!
10-day predictions


NORAD ID: 8800
Int'l Code: 1976-032B
Perigee: 797.5 km
Apogee: 931.6 km
Inclination: 81.2 °
Period: 102.1 minutes
Semi major axis: 7235 km
RCS: 7.6301 m2 (large)
Launch date: April 7, 1976
Source: Commonwealth of Independent States (former USSR) (CIS)
Launch site: PLESETSK MISSILE AND SPACE COMPLEX (PKMTR)

Note: This is a ROCKET BODY
Your satellite tracking list
Your tracking list is empty




NASA's NSSDC Master Catalog

Two Line Element Set (TLE):
1  8800U 76032B   25142.12677220  .00000214  00000-0  10937-3 0  9995
2  8800  81.2493 279.4071 0092647 264.4627  94.5971 14.10578978526349
Source of the keplerian elements: AFSPC